一网星座-0710星 (ONEWEB-0710)

导读 | 星芒AI

ONEWEB-0710 是 OneWeb 卫星通信公司发射的低轨通信卫星之一,主要用于提供全球宽带互联网服务。该卫星属于 OneWeb 的星座计划,旨在为偏远和农村地区提供高速、低延迟的网络连接。ONEWEB-0710 采用先进通信技术,支持 Ku 和 Ka 频段,具备高容量和高效数据传输能力。其发射和部署是 OneWeb 恢复运营、实现全球覆盖战略的重要一步。

基本信息
目录编号:
55173
目录名称:
ONEWEB-0710
国际标识:
2023-004AK
轨道中心:
EARTH
卫星名称:
一网星座-0710星
卫星全名:
一网星座-0710星 (ONEWEB-0710)
卫星状态:
在轨 (已飞行1071 天)
发射日期:
2023-01-10 UTC
国别 :
英国 (GB)
星等 :
--
轨道信息
数据来源 国际轨道数据 AOE轨道数据
星历时间 2025-12-15T13:03:02+0800
21小时前
查看轨道信息
2025-12-15T06:00:00+0800
1天前
查看轨道信息
半长轴 7571.854km 7571.857km
偏心率 0.0001725 0.0001805
轨道倾角 87.911° 87.911°
近地点辐角 105.446° 92.482°
升交点赤经 42.454° 42.512°
平近点角 254.687° 314.914°
近地点 1192.412km 1192.355km
远地点 1195.026km 1195.089km
周期 109.286分钟 109.286分钟
每日圈数 13.176481 13.176475
详细信息
平衡模式:
三轴稳定
覆盖范围:
全球
运营商:
一网卫星公司
运营商所在国:
英国
制造商(研发单位):
一网卫星公司
制造商所在国:
英国
使用方式:
暂无
卫星简介
OneWeb卫星网络由648颗重约125公斤的微型卫星组成,运行在1200公里的轨道上。 每颗卫星都能够提供至少每秒8千兆位的吞吐量,以使用其高吞吐量的Ku频段有效载荷为家庭和移动平台提供互联网接入。该卫星仍在工作。
2D轨道图
3D轨道图
轨道高度分析图
轨道倾角分析图
轨道综合分析图
查看轨道综合分析图